Погода в Эдэрмэг

Россия / Республика Бурятия     51°41′28″N   109°39′37″E
темп.,
°C
ветер,
м/с
пор.,
м/с
влажн.,
%
обл.,
%
осадки,
мм/ч
давл.,
гПа
погр.,
м
17 июня, чт
чт1723:00+4юз3694100 0.0 1008171
02:00+5з4886100 0.4 1008444
05:00+4зюз379497 3.3 1009355
08:00+7з468147 3.3 1008568
11:00+16зсз694625 0.0 10041610
14:00+19сз8103512 0.0 10032253
17:00+20ссз81438100 0.0 10022615
20:00+16сз8164733 0.0 10031570
18 июня, пт
пт1823:00+13зсз71450100 0.0 10021027
02:00+13зсз71455100 0.0 1001941
05:00+11зсз71561100 0.0 1000819
08:00+15зсз6125293 0.0 10001158
11:00+19сз71038100 0.0 9982469
14:00+15сз71160100 0.3 10001677
17:00+15ссз4859100 0.4 10011629
20:00+12юв1180100 0.6 100224
19 июня, сб
сб1923:00+11з2279100 0.1 100329
02:00+8з118384 0.1 100314
05:00+8зюз018782 0.0 100411
08:00+13зсз136796 0.0 1004305
11:00+18с3543100 0.1 10031915
14:00+21с3535100 0.1 10022609
17:00+16в4760100 0.0 1004536
20:00+14в376718 0.0 1005541
20 июня, вс
вс2023:00+9всв119014 0.0 100711
02:00+8з009580 0.0 100810
05:00+10св019199 0.0 100817
08:00+15всв347057 0.0 1009749
11:00+18в345495 0.1 10081437
14:00+19всв3443100 0.1 10071574
17:00+22в333546 0.0 10052192
20:00+18в23535 0.0 100658
21 июня, пн
пн2123:00+12в1172100 0.0 100814
02:00+9св228792 0.0 100918
05:00+9всв119238 0.0 101012
08:00+16всв246299 0.0 1009534
11:00+23всв334081 0.0 10061353
14:00+28ссв222969 0.0 10052706
17:00+25св124097 0.0 1004625
20:00+18всв226692 0.3 100638